Weather History for KSRR - March, 2013

Change the Weather History Date:

Monday, March 11, 2013

  Actual Average Record
Temperature  
Mean Temperature 42 °F -  
Max Temperature 55 °F 54 °F 68 °F (1997)
Min Temperature 28 °F 31 °F 21 °F (2009)
Degree Days  
Heating Degree Days 24    
Moisture  
Dew Point 13 °F    
Average Humidity 33    
Maximum Humidity 64    
Minimum Humidity 15    
Precipitation  
Precipitation 0.00 in - - ()
Sea Level Pressure  
Sea Level Pressure 30.13 in    
Wind  
Wind Speed 11 mph (West)    
Max Wind Speed 21 mph    
Max Gust Speed 33 mph    
Visibility 10 miles    
Events      
Averages and records for this station are not official NWS values.
T = Trace of Precipitation, MM = Missing Value Source: NWS Daily Summary

Daily Weather History Graph

Daily Weather History Graph

Search for Another Location

Airport or City:

Trip Planner

Search our weather history database for the weather conditions in past years. The results will help you decide how hot, cold, wet, or windy it might be!

Date:

Astronomy

Mar. 11, 2013 Rise Set
Actual Time 7:17 AM MDT 7:07 PM MDT
Civil Twilight 6:52 AM MDT 7:31 PM MDT
Nautical Twilight 6:23 AM MDT 8:00 PM MDT
Astronomical Twilight 5:54 AM MDT 8:29 PM MDT
Moon 6:54 AM MDT (3/11) 7:18 PM MDT (3/11)
Length of Visible Light 12h 39m
Length of Day
11h 49m
Waning Crescent, 0% of the Moon is Illuminated
Mar 11
Waning Crescent
Mar 11
New
Mar 19
First Quarter
Mar 27
Full
Apr 2
Last Quarter

Hourly Weather History & Observations

Time (MDT) Temp. Windchill Dew Point Humidity Pressure Visibility Wind Dir Wind Speed Gust Speed Precip Events Conditions
12:35 AM 32.0 °F 25.6 °F 15.8 °F 51% 30.18 in 10.0 mi WNW 6.9 mph - N/A   Clear
12:55 AM 32.0 °F 24.8 °F 15.8 °F 51% 30.17 in 10.0 mi WNW 8.1 mph - N/A   Clear
1:15 AM 32.0 °F 28.7 °F 15.8 °F 51% 30.17 in 10.0 mi WNW 3.5 mph - N/A   Clear
1:35 AM 33.8 °F 25.3 °F 15.8 °F 48% 30.16 in 10.0 mi WNW 11.5 mph 16.1 mph N/A   Clear
1:55 AM 35.6 °F 26.2 °F 15.8 °F 44% 30.16 in 10.0 mi WNW 15.0 mph - N/A   Clear
2:15 AM 35.6 °F 26.2 °F 14.0 °F 41% 30.15 in 10.0 mi WNW 15.0 mph 23.0 mph N/A   Clear
2:35 AM 35.6 °F 26.6 °F 14.0 °F 41% 30.16 in 10.0 mi WNW 13.8 mph 19.6 mph N/A   Clear
2:55 AM 35.6 °F 25.9 °F 15.8 °F 44% 30.16 in 10.0 mi WNW 16.1 mph 20.7 mph N/A   Clear
3:15 AM 35.6 °F 26.2 °F 15.8 °F 44% 30.16 in 10.0 mi West 15.0 mph - N/A   Clear
3:35 AM 35.6 °F 25.5 °F 15.8 °F 44% 30.15 in 10.0 mi WNW 17.3 mph 24.2 mph N/A   Clear
3:55 AM 35.6 °F 26.2 °F 15.8 °F 44% 30.14 in 10.0 mi WNW 15.0 mph 21.9 mph N/A   Clear
4:15 AM 33.8 °F 26.4 °F 15.8 °F 48% 30.15 in 10.0 mi WNW 9.2 mph 16.1 mph N/A   Clear
4:35 AM 33.8 °F 27.7 °F 15.8 °F 48% 30.14 in 10.0 mi WNW 6.9 mph - N/A   Clear
4:55 AM 33.8 °F 27.7 °F 15.8 °F 48% 30.14 in 10.0 mi WNW 6.9 mph - N/A   Clear
5:15 AM 33.8 °F 27.0 °F 14.0 °F 44% 30.14 in 10.0 mi West 8.1 mph - N/A   Clear
5:35 AM 33.8 °F 27.7 °F 14.0 °F 44% 30.14 in 10.0 mi West 6.9 mph - N/A   Clear
5:55 AM 33.8 °F 27.7 °F 14.0 °F 44% 30.14 in 10.0 mi WNW 6.9 mph - N/A   Clear
6:15 AM 33.8 °F 29.6 °F 14.0 °F 44% 30.15 in 10.0 mi South 4.6 mph - N/A   Clear
6:35 AM 28.4 °F 19.1 °F 17.6 °F 64% 30.15 in 10.0 mi SSW 10.4 mph - N/A   Clear
6:55 AM 28.4 °F 19.7 °F 17.6 °F 64% 30.15 in 10.0 mi SW 9.2 mph - N/A   Clear
7:15 AM 28.4 °F 21.2 °F 17.6 °F 64% 30.15 in 10.0 mi SSW 6.9 mph - N/A   Clear
7:35 AM 28.4 °F 23.3 °F 17.6 °F 64% 30.15 in 10.0 mi SSW 4.6 mph - N/A   Clear
7:55 AM 30.2 °F 23.4 °F 17.6 °F 60% 30.15 in 10.0 mi SW 6.9 mph - N/A   Clear
8:35 AM 33.8 °F 28.6 °F 19.4 °F 56% 30.16 in 10.0 mi SSW 5.8 mph - N/A   Unknown
8:55 AM 39.2 °F 33.0 °F 15.8 °F 39% 30.16 in 10.0 mi WNW 9.2 mph - N/A   Clear
9:15 AM 41.0 °F 37.1 °F 15.8 °F 36% 30.16 in 10.0 mi WNW 5.8 mph - N/A   Clear
9:35 AM 42.8 °F 36.2 °F 15.8 °F 34% 30.17 in 10.0 mi NW 12.7 mph 17.3 mph N/A   Clear
9:55 AM 41.0 °F 34.3 °F 15.8 °F 36% 30.17 in 10.0 mi NW 11.5 mph - N/A   Clear
10:15 AM 42.8 °F 38.0 °F 17.6 °F 36% 30.17 in 10.0 mi NW 8.1 mph - N/A   Clear
10:35 AM 44.6 °F 38.4 °F 17.6 °F 34% 30.18 in 10.0 mi NNW 12.7 mph 17.3 mph N/A   Clear
10:55 AM 46.4 °F 40.7 °F 15.8 °F 29% 30.18 in 10.0 mi NNW 12.7 mph 19.6 mph N/A   Clear
11:15 AM 48.2 °F - 15.8 °F 27% 30.17 in 10.0 mi NW 9.2 mph 18.4 mph N/A   Clear
11:35 AM 50.0 °F - 10.4 °F 20% 30.17 in 10.0 mi NW 13.8 mph 25.3 mph N/A   Clear
11:55 AM 50.0 °F - 10.4 °F 20% 30.16 in 10.0 mi NW 12.7 mph 21.9 mph N/A   Clear
12:15 PM 50.0 °F - 10.4 °F 20% 30.15 in 10.0 mi NW 15.0 mph 24.2 mph N/A   Clear
12:35 PM 50.0 °F - 10.4 °F 20% 30.15 in 10.0 mi WNW 19.6 mph 26.5 mph N/A   Clear
12:55 PM 50.0 °F - 10.4 °F 20% 30.14 in 10.0 mi NW 19.6 mph 33.4 mph N/A   Clear
1:15 PM 51.8 °F - 10.4 °F 19% 30.13 in 10.0 mi WNW 10.4 mph 29.9 mph N/A   Clear
1:35 PM 53.6 °F - 10.4 °F 18% 30.13 in 10.0 mi NW 16.1 mph 27.6 mph N/A   Clear
1:55 PM 51.8 °F - 10.4 °F 19% 30.13 in 10.0 mi NW 15.0 mph 26.5 mph N/A   Clear
2:15 PM 53.6 °F - 12.2 °F 19% 30.12 in 10.0 mi West 17.3 mph 24.2 mph N/A   Clear
2:35 PM 53.6 °F - 12.2 °F 19% 30.11 in 10.0 mi NW 15.0 mph 26.5 mph N/A   Clear
2:55 PM 55.4 °F - 10.4 °F 17% 30.09 in 10.0 mi NW 13.8 mph 20.7 mph N/A   Clear
3:15 PM 55.4 °F - 10.4 °F 17% 30.09 in 10.0 mi NW 18.4 mph 25.3 mph N/A   Clear
3:35 PM 55.4 °F - 8.6 °F 15% 30.09 in 10.0 mi NW 15.0 mph 27.6 mph N/A   Clear
3:55 PM 53.6 °F - 10.4 °F 18% 30.09 in 10.0 mi WNW 18.4 mph 25.3 mph N/A   Clear
4:15 PM 55.4 °F - 10.4 °F 17% 30.08 in 10.0 mi WNW 18.4 mph 28.8 mph N/A   Clear
4:35 PM 55.4 °F - 8.6 °F 15% 30.08 in 10.0 mi WNW 16.1 mph 28.8 mph N/A   Clear
4:55 PM 53.6 °F - 6.8 °F 15% 30.07 in 10.0 mi NW 15.0 mph 27.6 mph N/A   Clear
5:15 PM 53.6 °F - 8.6 °F 16% 30.07 in 10.0 mi WNW 10.4 mph 20.7 mph N/A   Clear
5:35 PM 53.6 °F - 6.8 °F 15% 30.07 in 10.0 mi WNW 20.7 mph 26.5 mph N/A   Clear
5:55 PM 53.6 °F - 8.6 °F 16% 30.08 in 10.0 mi NW 15.0 mph 24.2 mph N/A   Clear
6:15 PM 51.8 °F - 8.6 °F 18% 30.09 in 10.0 mi WNW 11.5 mph 20.7 mph N/A   Clear
6:35 PM 50.0 °F - 8.6 °F 19% 30.09 in 10.0 mi WNW 9.2 mph 18.4 mph N/A   Clear
6:55 PM 48.2 °F - 8.6 °F 20% 30.09 in 10.0 mi West 3.5 mph - N/A   Clear
7:15 PM 48.2 °F - 8.6 °F 20% 30.09 in 10.0 mi West 3.5 mph - N/A   Clear
7:35 PM 46.4 °F 44.3 °F 10.4 °F 23% 30.10 in 10.0 mi WSW 4.6 mph - N/A   Clear
7:55 PM 42.8 °F 38.0 °F 10.4 °F 27% 30.10 in 10.0 mi South 8.1 mph - N/A   Clear
8:15 PM 42.8 °F 38.6 °F 12.2 °F 29% 30.10 in 10.0 mi South 6.9 mph - N/A   Clear
8:35 PM 42.8 °F 39.3 °F 12.2 °F 29% 30.10 in 10.0 mi SSE 5.8 mph - N/A   Clear
8:55 PM 41.0 °F 36.4 °F 12.2 °F 31% 30.11 in 10.0 mi SSE 6.9 mph - N/A   Clear
9:15 PM 41.0 °F 36.4 °F 12.2 °F 31% 30.11 in 10.0 mi South 6.9 mph - N/A   Clear
9:35 PM 41.0 °F 34.7 °F 14.0 °F 33% 30.11 in 10.0 mi South 10.4 mph - N/A   Clear
9:55 PM 41.0 °F 36.4 °F 12.2 °F 31% 30.12 in 10.0 mi SSE 6.9 mph - N/A   Clear
10:35 PM 39.2 °F 32.5 °F 14.0 °F 36% 30.12 in 10.0 mi SSE 10.4 mph - N/A   Clear
10:55 PM 41.0 °F 35.8 °F 14.0 °F 33% 30.13 in 10.0 mi South 8.1 mph - N/A   Clear
11:15 PM 41.0 °F 34.3 °F 14.0 °F 33% 30.13 in 10.0 mi South 11.5 mph - N/A   Clear
11:35 PM 42.8 °F 36.2 °F 14.0 °F 31% 30.13 in 10.0 mi SSW 12.7 mph - N/A   Clear
11:55 PM 42.8 °F 36.6 °F 14.0 °F 31% 30.13 in 10.0 mi SSW 11.5 mph - N/A   Clear